Date String (YYYY-MM-DD hh:mm:ss) UTC,Instrument flags,absolute air pressure of the measurement (hPa),sample flow rate (lpm),inlet stack bypass flow (lpm),air temperature of the measurement (°C),ambient temperature measured by the external sensor (°C),aerosol sample conditioner tube jacket temperature (°C),OPC LED temperature (°C),internal box temperature (°C),relative humidity of the measurement (%),span deviation,mass concentration of particles derived from Lorenz-Mie calculation of OPC scattering (μg/m³),mass concentration of particles derived from Lorenz-Mie calculation of OPC scattering (μg/m³),mass concentration of particles derived from Lorenz-Mie calculation of OPC scattering (μg/m³)
DateTimeUTC,F1_M11,P_M11,Q1_M11,Q2_M11,T1_M11,T2_M11,T3_M11,T4_M11,T5_M11,U1_M11,ZSPAN_M11,X0_M11,X2_M11,X1_M11
2023-09-26 11:00:00,SystemResetWarning,0835.3,5.00,000.00,028.8,027.4,000.0,037.3,030.4,10.5,0000.0,0011.48,0004.59,0003.57
2023-09-26 11:01:00,SystemResetWarning,0835.3,5.00,000.00,028.8,027.4,000.0,037.3,030.4,10.6,0000.0,0011.93,0004.61,0003.56
2023-09-26 11:02:00,SystemResetWarning,0835.3,5.00,000.00,028.8,027.4,000.0,037.3,030.3,10.6,0000.0,0012.15,0004.59,0003.57
2023-09-26 11:03:00,SystemResetWarning,0835.3,5.00,000.00,028.8,027.4,000.0,037.3,030.4,10.6,0000.0,0012.62,0004.58,0003.58
2023-09-26 11:04:00,SystemResetWarning,0835.2,5.01,000.00,028.8,027.4,000.0,037.3,030.4,10.6,0000.0,0013.20,0004.61,0003.59
2023-09-26 11:05:00,SystemResetWarning,0835.3,5.01,000.00,028.8,027.4,000.0,037.3,030.4,10.6,0000.0,0013.31,0004.61,0003.60
2023-09-26 11:06:00,SystemResetWarning,0835.2,5.00,000.00,028.8,027.4,000.0,037.3,030.4,10.7,0000.0,0013.37,0004.63,0003.61
2023-09-26 11:07:00,SystemResetWarning,0835.3,5.00,000.00,028.8,027.4,000.0,037.3,030.4,10.7,0000.0,0013.60,0004.66,0003.62
2023-09-26 11:08:00,SystemResetWarning,0835.3,5.00,000.00,028.8,027.4,000.0,037.3,030.4,10.7,0000.0,0012.92,0004.65,0003.63
2023-09-26 11:09:00,SystemResetWarning,0835.3,4.99,000.00,028.8,027.4,000.0,037.3,030.4,10.7,0000.0,0012.97,0004.63,0003.65
2023-09-26 11:10:00,SystemResetWarning,0835.3,4.99,000.00,028.8,027.4,000.0,037.3,030.4,10.8,0000.0,0012.97,0004.62,0003.66
2023-09-26 11:11:00,SystemResetWarning,0835.3,4.99,000.00,028.8,027.4,000.0,037.3,030.4,10.8,0000.0,0012.63,0004.62,0003.67
2023-09-26 11:12:00,SystemResetWarning,0835.3,5.00,000.00,028.8,027.4,000.0,037.3,030.4,10.8,0000.0,0012.53,0004.63,0003.67
2023-09-26 11:13:00,SystemResetWarning,0835.3,5.00,000.00,028.8,027.4,000.0,037.3,030.4,10.8,0000.0,0012.67,0004.63,0003.66
2023-09-26 11:14:00,SystemResetWarning,0835.3,5.01,000.00,028.8,027.4,000.0,037.3,030.4,10.8,0000.0,0012.23,0004.67,0003.66
2023-09-26 11:15:00,SystemResetWarning,0835.3,5.01,000.00,028.8,027.4,000.0,037.3,030.4,10.8,0000.0,0011.45,0004.66,0003.66
2023-09-26 11:16:00,SystemResetWarning,0835.3,5.01,000.00,028.8,027.4,000.0,037.3,030.4,10.8,0000.0,0011.51,0004.65,0003.66
2023-09-26 11:17:00,SystemResetWarning,0835.3,5.00,000.00,028.8,027.4,000.0,037.3,030.4,10.8,0000.0,0011.33,0004.59,0003.65
2023-09-26 11:18:00,SystemResetWarning,0835.3,5.00,000.00,028.8,027.4,000.0,037.3,030.4,10.8,0000.0,0011.67,0004.60,0003.65
2023-09-26 11:19:00,SystemResetWarning,0835.3,5.00,000.00,028.8,027.4,000.0,037.3,030.4,10.8,0000.0,0011.47,0004.59,0003.65
2023-09-26 11:20:00,SystemResetWarning,0835.3,5.01,000.00,028.8,027.4,000.0,037.3,030.4,10.8,0000.0,0010.70,0004.59,0003.65
2023-09-26 11:21:00,SystemResetWarning,0835.3,5.01,000.00,028.8,027.4,000.0,037.3,030.4,10.8,0000.0,0011.03,0004.64,0003.65
2023-09-26 11:22:00,SystemResetWarning,0835.2,5.01,000.00,028.8,027.4,000.0,037.3,030.4,10.8,0000.0,0012.38,0004.67,0003.66
2023-09-26 11:23:00,SystemResetWarning,0835.2,5.00,000.00,028.8,027.4,000.0,037.3,030.4,10.8,0000.0,0013.01,0004.72,0003.67
2023-09-26 11:24:00,SystemResetWarning,0835.2,5.00,000.00,028.8,027.4,000.0,037.3,030.4,10.8,0000.0,0013.33,0004.77,0003.69
2023-09-26 11:25:00,SystemResetWarning,0835.2,5.00,000.00,028.8,027.4,000.0,037.3,030.4,10.9,0000.0,0014.14,0004.76,0003.68
2023-09-26 11:26:00,SystemResetWarning,0835.2,4.99,000.00,028.8,027.4,000.0,037.3,030.4,10.9,0000.0,0014.65,0004.72,0003.67
2023-09-26 11:27:00,SystemResetWarning,0835.2,5.00,000.00,028.8,027.4,000.0,037.3,030.4,10.9,0000.0,0015.30,0004.71,0003.66
2023-09-26 11:28:00,SystemResetWarning,0835.2,5.01,000.00,028.8,027.4,000.0,037.3,030.4,10.9,0000.0,0016.32,0004.73,0003.66
2023-09-26 11:29:00,SystemResetWarning,0835.2,5.01,000.00,028.8,027.4,000.0,037.3,030.4,10.9,0000.0,0016.74,0004.73,0003.66
2023-09-26 11:30:00,SystemResetWarning,0835.2,5.00,000.00,028.8,027.4,000.0,037.3,030.4,10.9,0000.0,0016.80,0004.67,0003.66
2023-09-26 11:31:00,SystemResetWarning,0835.2,5.00,000.00,028.8,027.4,000.0,037.3,030.4,10.9,0000.0,0017.16,0004.67,0003.66
2023-09-26 11:32:00,SystemResetWarning,0835.2,5.00,000.00,028.8,027.4,000.0,037.3,030.4,10.9,0000.0,0016.99,0004.67,0003.66
2023-09-26 11:33:00,SystemResetWarning,0835.2,5.00,000.00,028.8,027.4,000.0,037.3,030.4,10.9,0000.0,0016.02,0004.67,0003.65
2023-09-26 11:34:00,SystemResetWarning,0835.2,5.00,000.00,028.8,027.4,000.0,037.3,030.3,11.0,0000.0,0015.24,0004.65,0003.64
2023-09-26 11:35:00,SystemResetWarning,0835.2,4.99,000.00,028.8,027.4,000.0,037.3,030.4,10.9,0000.0,0014.44,0004.64,0003.64
2023-09-26 11:36:00,SystemResetWarning,0835.2,5.00,000.00,028.8,027.4,000.0,037.3,030.4,10.9,0000.0,0014.14,0004.63,0003.65
2023-09-26 11:37:00,SystemResetWarning,0835.2,5.00,000.00,028.8,027.3,000.0,037.3,030.4,10.9,0000.3,0014.26,0004.69,0003.66
2023-09-26 11:38:00,SystemResetWarning,0835.2,5.00,000.00,028.8,027.3,000.0,037.3,030.4,10.9,0000.0,0013.15,0004.69,0003.67
2023-09-26 11:39:00,SystemResetWarning,0835.2,5.00,000.00,028.8,027.3,000.0,037.3,030.3,10.9,0000.0,0012.38,0004.68,0003.67
2023-09-26 11:40:00,SystemResetWarning,0835.1,5.00,000.00,028.8,027.3,000.0,037.3,030.3,10.9,0000.0,0011.27,0004.66,0003.68
2023-09-26 11:41:00,SystemResetWarning,0835.2,5.01,000.00,028.8,027.3,000.0,037.3,030.3,10.9,0000.0,0010.97,0004.67,0003.68
2023-09-26 11:42:00,SystemResetWarning,0835.1,5.00,000.00,028.8,027.3,000.0,037.3,030.3,10.9,0000.0,0010.88,0004.69,0003.68
2023-09-26 11:43:00,SystemResetWarning,0835.2,5.00,000.00,028.8,027.3,000.0,037.3,030.4,10.9,0000.0,0011.32,0004.70,0003.69
2023-09-26 11:44:00,SystemResetWarning,0835.1,5.00,000.00,028.8,027.3,000.0,037.3,030.3,11.0,0000.0,0011.57,0004.67,0003.70
2023-09-26 11:45:00,SystemResetWarning,0835.2,5.00,000.00,028.8,027.3,000.0,037.3,030.3,10.9,0000.0,0011.70,0004.67,0003.72
2023-09-26 11:46:00,SystemResetWarning,0835.2,5.00,000.00,028.8,027.3,000.0,037.3,030.3,10.9,0000.0,0011.64,0004.66,0003.72
2023-09-26 11:47:00,SystemResetWarning,0835.2,5.00,000.00,028.8,027.3,000.0,037.3,030.3,11.0,0000.0,0011.27,0004.67,0003.71
2023-09-26 11:48:00,SystemResetWarning,0835.2,5.00,000.00,028.8,027.3,000.0,037.3,030.3,11.0,0000.0,0010.98,0004.62,0003.72
2023-09-26 11:49:00,SystemResetWarning,0835.2,5.00,000.00,028.8,027.3,000.0,037.3,030.3,11.0,0000.0,0011.37,0004.61,0003.73
2023-09-26 11:50:00,SystemResetWarning,0835.3,4.99,000.00,028.7,027.3,000.0,037.3,030.3,11.0,0000.0,0012.66,0004.65,0003.74
2023-09-26 11:51:00,SystemResetWarning,0835.3,5.00,000.00,028.7,027.3,000.0,037.3,030.3,11.0,0000.0,0013.98,0004.68,0003.73
2023-09-26 11:52:00,SystemResetWarning,0835.3,5.00,000.00,028.7,027.3,000.0,037.3,030.3,11.0,0000.0,0014.53,0004.70,0003.72
2023-09-26 11:53:00,SystemResetWarning,0835.3,5.00,000.00,028.7,027.3,000.0,037.3,030.3,11.0,0000.0,0014.35,0004.69,0003.72
2023-09-26 11:54:00,SystemResetWarning,0835.3,5.01,000.00,028.7,027.3,000.0,037.3,030.3,11.0,0000.0,0015.01,0004.71,0003.73
2023-09-26 11:55:00,SystemResetWarning,0835.3,5.00,000.00,028.7,027.3,000.0,037.3,030.3,11.0,0000.0,0014.87,0004.75,0003.74
2023-09-26 11:56:00,SystemResetWarning,0835.3,5.01,000.00,028.7,027.3,000.0,037.3,030.3,11.1,0000.0,0014.81,0004.76,0003.73
2023-09-26 11:57:00,SystemResetWarning,0835.3,5.00,000.00,028.7,027.3,000.0,037.2,030.3,11.1,0000.0,0014.79,0004.74,0003.73
2023-09-26 11:58:00,SystemResetWarning,0835.3,5.00,000.00,028.7,027.3,000.0,037.2,030.3,11.1,0000.0,0015.18,0004.73,0003.74
2023-09-26 11:59:00,SystemResetWarning,0835.3,5.00,000.00,028.7,027.3,000.0,037.2,030.3,11.1,0000.0,0014.95,0004.72,0003.74
